Location: Daerah Kuala Lumpur
(3.1167°N, 101.6833°E)
Time: 10:03:04
(UTC+00:00)

OAO 2 Rocket - Pass Details

Date: 05 August 2024
Orbit: 672 x 738 km, 35.0° (Epoch: 18 September)

Event Time Altitude Azimuth Distance (km) Brightness Sun altitude
Exits shadow 21:16:32 63° 22° (NNE) 807 3.6 -28.2°
Drops below altitude 10° 21:20:57 10° 48° (NE) 2,194 6.7 -27.2°
Sets 21:23:21 0° 50° (NE) 3,103 7.8 -26.6°
